Location: Newark
(47.3150°N, 5.1150°E)
Time: 01:51:30
(UTC+00:00)

O/OREOS (USA 219) - Pass Details

Date: 23 December 2019
Orbit: 621 x 646 km, 72.0° (Epoch: 22 May)

Event Time Altitude Azimuth Distance (km) Brightness Sun altitude
Exits shadow 05:34:03 17° 231° (SW) 1,608 ? -17.7°
Drops below altitude 10° 05:35:45 10° 211° (SSW) 2,015 ? -17.4°
Sets 05:38:27 0° 195° (SSW) 2,912 ? -17.0°
